Location: Auttagershofen
(48.1940°N, 10.0237°E)
Time: 08:59:52
(UTC+00:00)

Cosmos 1959 Rocket - Pass Details

Date: 18 January 2026
Orbit: 947 x 996 km, 83.0° (Epoch: 16 February)

Event Time Altitude Azimuth Distance (km) Brightness Sun altitude
Rises 06:17:47 0° 197° (SSW) 3,632 7.6 -7.6°
Reaches altitude 10° 06:20:19 10° 200° (SSW) 2,684 6.9 -7.2°
Maximum altitude 06:26:24 64° 282° (WNW) 1,049 4.5 -6.3°
Drops below altitude 10° 06:32:29 10° 4° (N) 2,682 6.6 -5.4°
Sets 06:35:01 0° 8° (N) 3,629 7.3 -5.0°
